• In Hungary
  • List of Countries
  • For 7 days
  • Water Temperature
  • Satellite Maps
  • Weather Map
  • News
  • Weather Widgets
  • user-avatar
    Login

    Hourly Weather Stadnya

    Today, 22 October, Sunday

    Time Temperature Precipitation Wind Pressure Humidity
    00:00 +9°C° 0 mm 3 mps 740 mmHg 92%
    01:00 +8°C° 0 mm 2 mps 740 mmHg 94%
    02:00 +10°C° 0 mm 1 mps 740 mmHg 96%
    03:00 +9°C° 0 mm 2 mps 740 mmHg 95%
    04:00 +9°C° 0 mm 2 mps 741 mmHg 94%
    05:00 +9°C° 0 mm 2 mps 741 mmHg 93%
    06:00 +9°C° 0 mm 2 mps 741 mmHg 91%
    07:00 +9°C° 0 mm 2 mps 741 mmHg 90%
    08:00 +9°C° 0 mm 2 mps 741 mmHg 88%
    09:00 +9°C° 0 mm 2 mps 741 mmHg 85%
    10:00 +9°C° 0 mm 3 mps 742 mmHg 83%
    11:00 +10°C° 0 mm 3 mps 742 mmHg 80%
    12:00 +10°C° 0 mm 3 mps 742 mmHg 78%
    13:00 +11°C° 0 mm 3 mps 741 mmHg 76%
    14:00 +11°C° 0 mm 3 mps 741 mmHg 74%
    15:00 +11°C° 0 mm 3 mps 741 mmHg 76%
    16:00 +10°C° 0 mm 3 mps 741 mmHg 77%
    17:00 +10°C° 0 mm 3 mps 740 mmHg 79%
    18:00 +9°C° 0 mm 3 mps 740 mmHg 81%
    19:00 +7°C° 0 mm 4 mps 740 mmHg 83%
    20:00 +7°C° 0 mm 4 mps 740 mmHg 84%
    21:00 +7°C° 0 mm 4 mps 740 mmHg 84%
    22:00 +6°C° 0 mm 4 mps 740 mmHg 84%
    23:00 +6°C° 0 mm 4 mps 740 mmHg 84%

    Tomorrow, 23 October, Monday

    Time Temperature Precipitation Wind Pressure Humidity
    00:00 +6°C° 0 mm 4 mps 740 mmHg 84%
    01:00 +6°C° 0 mm 4 mps 739 mmHg 83%
    02:00 +6°C° 0 mm 4 mps 739 mmHg 83%
    03:00 +6°C° 0 mm 4 mps 739 mmHg 83%
    04:00 +6°C° 0 mm 4 mps 738 mmHg 83%
    05:00 +5°C° 0 mm 4 mps 738 mmHg 84%
    06:00 +5°C° 0.1 mm 4 mps 738 mmHg 83%
    07:00 +6°C° 0.1 mm 5 mps 738 mmHg 83%
    08:00 +6°C° 0.1 mm 5 mps 738 mmHg 83%
    09:00 +6°C° 0.2 mm 5 mps 738 mmHg 82%
    10:00 +6°C° 0.2 mm 5 mps 738 mmHg 80%
    11:00 +7°C° 0.2 mm 5 mps 738 mmHg 79%
    12:00 +7°C° 0.2 mm 5 mps 737 mmHg 79%
    13:00 +7°C° 0.2 mm 5 mps 737 mmHg 79%
    14:00 +7°C° 0.2 mm 5 mps 737 mmHg 79%
    15:00 +7°C° 0.4 mm 5 mps 737 mmHg 80%
    16:00 +7°C° 0.4 mm 5 mps 737 mmHg 82%
    17:00 +7°C° 0.4 mm 5 mps 737 mmHg 84%
    18:00 +7°C° 1.1 mm 5 mps 737 mmHg 85%
    19:00 +7°C° 1.1 mm 5 mps 738 mmHg 87%
    20:00 +6°C° 1.1 mm 5 mps 738 mmHg 88%
    21:00 +6°C° 1 mm 5 mps 738 mmHg 88%
    22:00 +6°C° 1 mm 5 mps 738 mmHg 88%
    23:00 +6°C° 1 mm 5 mps 739 mmHg 87%

    Day after tomorrow, 24 October, Tuesday

    Time Temperature Precipitation Wind Pressure Humidity
    00:00 +5°C° 0.3 mm 5 mps 739 mmHg 87%
    01:00 +5°C° 0.3 mm 5 mps 740 mmHg 87%
    02:00 +5°C° 0.3 mm 5 mps 740 mmHg 87%
    03:00 +5°C° 0.2 mm 5 mps 740 mmHg 87%
    04:00 +5°C° 0.2 mm 5 mps 741 mmHg 87%
    05:00 +5°C° 0.2 mm 5 mps 741 mmHg 87%
    06:00 +3°C° 0.1 mm 5 mps 742 mmHg 86%
    07:00 +3°C° 0.1 mm 5 mps 742 mmHg 85%
    08:00 +3°C° 0.1 mm 5 mps 743 mmHg 84%
    09:00 +3°C° 0.1 mm 5 mps 743 mmHg 83%
    10:00 +4°C° 0.1 mm 4 mps 744 mmHg 82%
    11:00 +4°C° 0.1 mm 4 mps 745 mmHg 81%
    12:00 +4°C° 0 mm 4 mps 745 mmHg 80%
    13:00 +5°C° 0 mm 4 mps 745 mmHg 79%
    14:00 +5°C° 0 mm 4 mps 745 mmHg 78%
    15:00 +5°C° 0 mm 3 mps 746 mmHg 79%
    16:00 +4°C° 0 mm 3 mps 746 mmHg 80%
    17:00 +4°C° 0 mm 3 mps 746 mmHg 81%
    18:00 +5°C° 0 mm 2 mps 747 mmHg 81%
    19:00 +4°C° 0 mm 2 mps 747 mmHg 82%
    20:00 +4°C° 0 mm 2 mps 748 mmHg 82%
    21:00 +4°C° 0 mm 2 mps 748 mmHg 83%
    22:00 +3°C° 0 mm 2 mps 748 mmHg 83%
    23:00 +3°C° 0 mm 2 mps 748 mmHg 84%

    25 October, Wednesday

    Time Temperature Precipitation Wind Pressure Humidity
    00:00 +3°C° 0 mm 2 mps 748 mmHg 84%
    01:00 +3°C° 0 mm 1 mps 748 mmHg 85%
    02:00 +3°C° 0 mm 1 mps 748 mmHg 85%
    03:00 +3°C° 0 mm 1 mps 748 mmHg 85%
    04:00 +3°C° 0 mm 1 mps 748 mmHg 85%
    05:00 +1°C° 0 mm 2 mps 748 mmHg 85%
    06:00 +1°C° 0 mm 2 mps 748 mmHg 84%
    07:00 +3°C° 0 mm 1 mps 748 mmHg 83%
    08:00 +3°C° 0 mm 1 mps 749 mmHg 82%
    09:00 +3°C° 0 mm 2 mps 749 mmHg 76%
    10:00 +5°C° 0 mm 2 mps 748 mmHg 69%
    11:00 +6°C° 0 mm 2 mps 748 mmHg 62%
    12:00 +7°C° 0 mm 2 mps 748 mmHg 62%
    13:00 +8°C° 0 mm 2 mps 748 mmHg 61%
    14:00 +8°C° 0 mm 2 mps 747 mmHg 60%
    15:00 +8°C° 0.1 mm 2 mps 747 mmHg 65%
    16:00 +7°C° 0.1 mm 2 mps 746 mmHg 69%
    17:00 +7°C° 0.1 mm 2 mps 746 mmHg 74%
    18:00 +7°C° 0.2 mm 3 mps 746 mmHg 75%
    19:00 +7°C° 0.2 mm 3 mps 746 mmHg 77%
    20:00 +5°C° 0.2 mm 4 mps 746 mmHg 78%
    21:00 +6°C° 0.2 mm 4 mps 746 mmHg 80%
    22:00 +6°C° 0.2 mm 4 mps 745 mmHg 82%
    23:00 +6°C° 0.2 mm 4 mps 745 mmHg 83%

    26 October, Thursday

    Time Temperature Precipitation Wind Pressure Humidity
    00:00 +6°C° 0.9 mm 4 mps 745 mmHg 85%
    01:00 +6°C° 0.9 mm 4 mps 744 mmHg 88%
    02:00 +7°C° 0.9 mm 4 mps 744 mmHg 90%
    03:00 +7°C° 1.1 mm 5 mps 744 mmHg 90%
    04:00 +8°C° 1.1 mm 5 mps 743 mmHg 91%
    05:00 +9°C° 1.1 mm 5 mps 743 mmHg 91%
    06:00 +10°C° 0.9 mm 6 mps 742 mmHg 90%
    07:00 +10°C° 0.9 mm 7 mps 742 mmHg 90%
    08:00 +11°C° 0.9 mm 8 mps 742 mmHg 89%
    09:00 +11°C° 0.7 mm 8 mps 742 mmHg 89%
    10:00 +11°C° 0.7 mm 7 mps 742 mmHg 89%
    11:00 +11°C° 0.7 mm 7 mps 743 mmHg 90%
    12:00 +11°C° 0.1 mm 7 mps 743 mmHg 88%
    13:00 +11°C° 0.1 mm 6 mps 743 mmHg 86%
    14:00 +11°C° 0.1 mm 6 mps 743 mmHg 85%
    15:00 +12°C° 0.1 mm 5 mps 743 mmHg 86%
    16:00 +11°C° 0.1 mm 4 mps 743 mmHg 87%
    17:00 +11°C° 0.1 mm 3 mps 743 mmHg 88%
    18:00 +11°C° 0.1 mm 3 mps 743 mmHg 90%
    19:00 +10°C° 0.1 mm 3 mps 743 mmHg 92%
    20:00 +10°C° 0.1 mm 2 mps 743 mmHg 93%
    21:00 +10°C° 0.1 mm 2 mps 743 mmHg 94%
    22:00 +10°C° 0.1 mm 3 mps 743 mmHg 95%
    23:00 +10°C° 0.1 mm 3 mps 743 mmHg 96%

    27 October, Friday

    Time Temperature Precipitation Wind Pressure Humidity
    00:00 +10°C° 0.4 mm 3 mps 742 mmHg 96%
    01:00 +10°C° 0.4 mm 3 mps 742 mmHg 96%
    02:00 +10°C° 0.4 mm 3 mps 742 mmHg 96%
    03:00 +10°C° 0.4 mm 3 mps 741 mmHg 96%
    04:00 +10°C° 0.4 mm 3 mps 741 mmHg 95%
    05:00 +10°C° 0.4 mm 3 mps 741 mmHg 94%
    06:00 +10°C° 0.1 mm 4 mps 740 mmHg 93%
    07:00 +11°C° 0.1 mm 4 mps 740 mmHg 93%
    08:00 +11°C° 0.1 mm 4 mps 740 mmHg 92%
    09:00 +10°C° 0 mm 5 mps 739 mmHg 90%
    10:00 +12°C° 0 mm 5 mps 739 mmHg 88%
    11:00 +12°C° 0 mm 5 mps 738 mmHg 85%
    12:00 +12°C° 0.1 mm 5 mps 738 mmHg 84%
    13:00 +12°C° 0.1 mm 5 mps 737 mmHg 84%
    14:00 +13°C° 0.1 mm 5 mps 736 mmHg 83%
    15:00 +12°C° 0.6 mm 4 mps 735 mmHg 83%
    16:00 +12°C° 0.6 mm 4 mps 735 mmHg 84%
    17:00 +12°C° 0.6 mm 4 mps 734 mmHg 84%
    18:00 +10°C° 0.4 mm 5 mps 733 mmHg 84%
    19:00 +10°C° 0.4 mm 5 mps 732 mmHg 84%
    20:00 +10°C° 0.4 mm 6 mps 731 mmHg 84%
    21:00 +10°C° 0.6 mm 6 mps 731 mmHg 84%
    22:00 +10°C° 0.6 mm 7 mps 730 mmHg 84%
    23:00 +10°C° 0.6 mm 7 mps 730 mmHg 85%
    Show more